Tiempo atmosférico en la estación meteorológica de Quintana del Castillo, Villameca, León (995 m.)



Fecha
DESCASC
Temp. máxima en grados centígrados (hora)
DESCASC
Temp. mínima en grados centígrados (hora)
DESCASC
Temp. media en grados centígrados
DESCASC
Racha de viento máxima en m/sg (hora)
DESCASC
Velocidad máxima media en intervalos de 10 minutos(hora)
DESCASC
Precipitaciones diarias en mm
DESCASC
Precipitaciones de 00:00 a 06:00 en mm
DESCASC
Precipitaciones de 06:00 a 12:00 en mm
DESCASC
Precipitaciones de 12:00 a 18:00 en mm
DESCASC
Precipitaciones de 18:00 a 24:00 en mm
DESCASC
11-12-2019 5.2 (15:10) 1.6 (01:00) 3.4 16.94 (14:10) 10.56 (14:10) 3.4 2.2 0.8 0 0.4
10-12-2019 7.2 (15:00) -0.4 (06:40) 3.4 5.28 (01:00) 3.61 (01:00) 0 0 0 0 0
09-12-2019 7.2 (12:20) 2.8 (05:10) 5 9.44 (09:30) 6.67 (10:00) 0 0 0 0 0
08-12-2019 10.1 (12:30) 3.1 (00:00) 6.6 11.11 (22:10) 6.67 (16:40) 0.8 0.2 0.6 0 0
07-12-2019 12.2 (15:30) 1.2 (00:00) 6.7 6.94 (13:20) 5 (17:50) 0 0 0 0 0
06-12-2019 10.8 (14:10) 1 (00:00) 5.9 6.11 (15:40) 3.89 (05:40) 0 0 0 0 0
05-12-2019 11.7 (14:00) 0.5 (00:00) 6.1 8.61 (01:40) 5.56 (01:40) 0 0 0 0 0
04-12-2019 10.8 (14:40) -1.5 (-00:0) 4.7 -- (--) -- (--) -- 0 -- 0 0
03-12-2019 7.5 (15:10) -3.3 (-00:0) 2.1 4.44 (15:40) 3.61 (03:50) 0 0 0 0 0
02-12-2019 7.4 (10:50) 0.5 (00:00) 4 12.78 (15:00) 8.89 (14:40) 0 0 0 0 0
01-12-2019 8.1 (15:20) 2.9 (00:00) 5.5 10.56 (16:50) 7.78 (16:30) 2.2 1.2 0.8 0.2 0
30-11-2019 8.5 (09:40) 4 (00:00) 6.3 14.17 (14:50) 8.89 (15:00) 6.2 2 3.2 1 0
29-11-2019 12.8 (15:20) 5.5 (00:00) 9.2 8.33 (01:00) 5.83 (01:00) 0.2 0 0 0 0.2
28-11-2019 10.6 (13:10) 7.1 (00:00) 8.9 12.5 (06:20) 6.94 (00:40) 11.4 2.6 0 3.4 5.4
27-11-2019 7.7 (13:30) 5.2 (00:00) 6.4 21.67 (04:30) 12.78 (04:30) 8 0.6 1.6 2.2 3.6
26-11-2019 13.9 (15:10) 5.3 (00:00) 9.6 21.39 (18:40) 11.11 (18:40) 6.2 0.2 0.8 0.4 4.8
25-11-2019 9.3 (12:50) 5.5 (00:00) 7.4 14.17 (03:20) 7.78 (07:40) 0.8 0.4 0.4 0 0
24-11-2019 6.6 (13:50) 3.2 (00:00) 4.9 11.11 (00:50) 6.94 (01:00) 7.2 0 0 2.4 4.8
23-11-2019 6.9 (14:10) 2.3 (00:00) 4.6 20.28 (00:20) 13.61 (00:20) 4.6 4.4 0 0.2 0
22-11-2019 8.7 (13:10) 1.6 (00:00) 5.1 18.06 (23:50) 10.83 (15:30) 19.2 1.8 4.2 3.6 9.6
21-11-2019 6.1 (14:40) 0.7 (00:00) 3.4 12.22 (14:50) 7.22 (14:50) 2.4 1.8 0.6 0 0
20-11-2019 5.9 (16:10) 2.5 (00:00) 4.2 5.28 (15:30) 2.78 (10:00) 5.6 1.2 3.6 0 0.8
19-11-2019 5.3 (14:40) -1.9 (-00:0) 1.7 4.17 (00:50) 2.78 (06:00) 1.6 0 0 0 1.6
18-11-2019 6.8 (16:10) -0.2 (00:00) 3.3 11.67 (12:20) 8.61 (12:30) 0 0 0 0 0
17-11-2019 6 (13:40) 1.5 (00:00) 3.8 16.67 (18:00) 10 (17:20) 2.2 0.2 2 0 0
16-11-2019 3.3 (13:10) -0.8 (-00:0) 1.2 12.5 (15:30) 8.06 (15:20) 7 0.2 2.4 4.4 0
15-11-2019 1.7 (16:10) -0.6 (-00:0) 0.6 15.28 (11:50) 9.72 (11:00) 15 0.2 3 11.4 0.4

Gráficas

Temp. máximas Temp. mínimas Temp. medias Precipitaciones Rachas de viento máximas Velocidades máximas media en intervalos de 10 minutos

Datos horarios

Fecha y hora oficial Temperatura (ºC) Velocidad del viento (km/h) Dirección del viento Racha (km/h) Dirección de racha Precipitación (mm) Presión (hPa) Tendencia (hPa) Humedad (%)
2019-12-14 23:00:00 7 5 Noroeste 18 Noroeste 0 -- -- 94
2019-12-14 22:00:00 7.1 2 Oeste 7 Sur 0 -- -- 94
2019-12-14 21:00:00 7.3 3 Sudoeste 10 Oeste 0 -- -- 94
2019-12-14 20:00:00 7.4 3 Oeste 12 Oeste 0 -- -- 95
2019-12-14 19:00:00 7.7 6 Oeste 17 Oeste 0 -- -- 94
2019-12-14 18:00:00 7.9 9 Noroeste 18 Noroeste 0 -- -- 92
2019-12-14 17:00:00 8.1 6 Oeste 27 Noroeste 0 -- -- 92
2019-12-14 16:00:00 8.4 14 Noroeste 23 Oeste 0 -- -- 92
2019-12-14 15:00:00 7.9 13 Oeste 22 Noroeste 0 -- -- 94
2019-12-14 14:00:00 7.4 12 Oeste 27 Oeste 0 -- -- 97
2019-12-14 13:00:00 7.7 14 Oeste 31 Oeste 0 -- -- 95
2019-12-14 12:00:00 6.8 14 Oeste 32 Oeste 0.4 -- -- 99
2019-12-14 11:00:00 6.7 13 Oeste 22 Oeste 0.2 -- -- 99
2019-12-14 10:00:00 6.3 11 Oeste 30 Oeste 0 -- -- 98
2019-12-14 09:00:00 6.2 16 Noroeste 35 Noroeste 0 -- -- 97
2019-12-14 08:00:00 6.3 12 Noroeste 32 Oeste 0.4 -- -- 98
2019-12-14 07:00:00 6.4 24 Noroeste 37 Noroeste 0.2 -- -- 98
2019-12-14 06:00:00 6.8 18 Noroeste 31 Noroeste 0.2 -- -- 96
2019-12-14 05:00:00 6.9 22 Noroeste 42 Oeste 0 -- -- 95
2019-12-14 04:00:00 7.2 23 Noroeste 48 Oeste 0 -- -- 90
2019-12-14 03:00:00 7 23 Noroeste 49 Noroeste 0 -- -- 95
2019-12-14 02:00:00 7.1 24 Noroeste 51 Oeste 0 -- -- 91
2019-12-14 01:00:00 6.9 21 Noroeste 53 Noroeste 0 -- -- 91
2019-12-14 00:00:00 7.3 30 Noroeste 54 Noroeste 0 -- -- 86
2019-12-13 23:00:00 7.1 26 Noroeste 44 Noroeste 0 -- -- 90
2019-12-13 22:00:00 7.5 23 Noroeste 55 Noroeste 0 -- -- 85
2019-12-13 21:00:00 7.6 35 Noroeste 75 Noroeste 0 -- -- 81
2019-12-13 20:00:00 8.3 44 Noroeste 76 Noroeste 0 -- -- 83
2019-12-13 19:00:00 8.8 36 Noroeste 71 Noroeste 0 -- -- 87
2019-12-13 18:00:00 9.2 39 Noroeste 61 Noroeste 0 -- -- 89
2019-12-13 17:00:00 9.5 36 Noroeste 66 Noroeste 0.2 -- -- 91
2019-12-13 16:00:00 9.4 32 Noroeste 54 Noroeste 0 -- -- 95
2019-12-13 15:00:00 9.9 26 Noroeste 60 Noroeste 0 -- -- 93
2019-12-13 14:00:00 10.6 39 Noroeste 66 Noroeste 0 -- -- 89
2019-12-13 13:00:00 10.4 32 Noroeste 55 Noroeste 0 -- -- 89
2019-12-13 12:00:00 9.7 35 Noroeste 61 Noroeste 0 -- -- 90
2019-12-13 11:00:00 9.3 37 Noroeste 69 Oeste 0 -- -- 94
2019-12-13 10:00:00 9.2 36 Noroeste 67 Noroeste 0 -- -- 93
2019-12-13 09:00:00 9.1 31 Noroeste 62 Noroeste 0 -- -- 93
2019-12-13 08:00:00 8.9 30 Noroeste 70 Noroeste 0 -- -- 93
2019-12-13 07:00:00 9 37 Noroeste 84 Norte 0 -- -- 93
2019-12-13 06:00:00 8.7 30 Noroeste 66 Noroeste 0 -- -- 97
2019-12-13 05:00:00 8.7 40 Noroeste 67 Noroeste 0 -- -- 98
2019-12-13 04:00:00 8.8 30 Noroeste 68 Oeste 0 -- -- 99
2019-12-13 03:00:00 9 35 Noroeste 73 Noroeste -- -- -- 99
2019-12-13 02:00:00 9 39 Noroeste 65 Noroeste 0.2 -- -- 99
2019-12-13 01:00:00 9 36 Noroeste 71 Noroeste 0.2 -- -- 99
2019-12-13 00:00:00 9 36 Noroeste 73 Noroeste 1.4 -- -- 99
2019-12-12 23:00:00 8.9 37 Noroeste 67 Noroeste 2.2 -- -- 100
2019-12-12 22:00:00 8.8 35 Noroeste 62 Noroeste 2 -- -- 100
2019-12-12 21:00:00 8.7 35 Noroeste 67 Noroeste 0.6 -- -- 100
2019-12-12 20:00:00 8.5 35 Noroeste 60 Oeste 1.4 -- -- 100
2019-12-12 19:00:00 8.3 36 Noroeste 66 Noroeste 2 -- -- 100
2019-12-12 18:00:00 7.9 33 Noroeste 56 Noroeste 2.4 -- -- 99
2019-12-12 17:00:00 7.4 32 Noroeste 58 Noroeste 2.6 -- -- 99
2019-12-12 16:00:00 6.9 35 Noroeste 55 Noroeste 2 -- -- 98
2019-12-12 15:00:00 6.3 29 Noroeste 60 Noroeste 2.8 -- -- 98
2019-12-12 14:00:00 5.8 37 Noroeste 65 Oeste 2.4 -- -- 97
2019-12-12 13:00:00 5.2 32 Noroeste 57 Noroeste 1.2 -- -- 95
2019-12-12 12:00:00 4.6 29 Noroeste 52 Noroeste 1.2 -- -- 95
2019-12-12 11:00:00 4.4 28 Noroeste 48 Noroeste 1.8 -- -- 96
2019-12-12 10:00:00 4.2 23 Noroeste 51 Noroeste 1.2 -- -- 97
2019-12-12 09:00:00 4 28 Noroeste 48 Noroeste 1 -- -- 93
2019-12-12 08:00:00 4 26 Noroeste 47 Noroeste 0.4 -- -- 95
2019-12-12 07:00:00 4.1 27 Noroeste 50 Noroeste 0.6 -- -- 96
2019-12-12 06:00:00 4.2 19 Noroeste 42 Noroeste 0.4 -- -- 97
2019-12-12 05:00:00 4 13 Noroeste 41 Noroeste 0.2 -- -- 97
2019-12-12 04:00:00 4 23 Noroeste 49 Noroeste 0.2 -- -- 94
2019-12-12 03:00:00 3.6 17 Noroeste 40 Noroeste 0 -- -- 95
2019-12-12 02:00:00 3.6 10 Oeste 29 Noroeste 0.2 -- -- 96
2019-12-12 01:00:00 3.6 15 Noroeste 36 Noroeste 0.2 -- -- 95
2019-12-12 00:00:00 3.3 19 Oeste 28 Noroeste 0 -- -- 97
2019-12-11 23:00:00 3.4 18 Noroeste 38 Noroeste 0 -- -- 92
2019-12-11 22:00:00 3.5 21 Noroeste 40 Noroeste 0 -- -- 92
2019-12-11 21:00:00 3.6 21 Noroeste 51 Noroeste 0 -- -- 91
2019-12-11 20:00:00 3.6 26 Noroeste 45 Noroeste 0.2 -- -- 90
2019-12-11 19:00:00 3.4 27 Noroeste 49 Noroeste 0.2 -- -- 95
2019-12-11 18:00:00 3.2 28 Noroeste 49 Noroeste 0 -- -- 94
2019-12-11 17:00:00 3.3 30 Noroeste 47 Noroeste 0 -- -- 91
2019-12-11 16:00:00 4.6 36 Noroeste 59 Noroeste 0 -- -- 79
2019-12-11 15:00:00 5.1 35 Noroeste 61 Noroeste 0 -- -- 74
2019-12-11 14:00:00 4.9 34 Noroeste 55 Noroeste 0 -- -- 75
2019-12-11 13:00:00 4.5 26 Noroeste 55 Noroeste 0 -- -- 78
2019-12-11 12:00:00 4.1 30 Noroeste 51 Noroeste 0 -- -- 82
2019-12-11 11:00:00 3.4 27 Noroeste 42 Oeste 0 -- -- 88
2019-12-11 10:00:00 3.5 13 Noroeste 29 Noroeste 0 -- -- 86
2019-12-11 09:00:00 3 8 Noroeste 26 Noroeste 0 -- -- 96
2019-12-11 08:00:00 3.2 16 Noroeste 37 Oeste 0.2 -- -- 98
2019-12-11 07:00:00 3.4 22 Noroeste 34 Noroeste 0.6 -- -- 99
2019-12-11 06:00:00 2.8 4 Oeste 9 Oeste 0.2 -- -- 99
2019-12-11 05:00:00 2.3 3 Sudeste 8 Sudeste 1.2 -- -- 98
2019-12-11 04:00:00 2.4 4 Sudoeste 9 Sur 0.8 -- -- 98
2019-12-11 03:00:00 2 0 Calma 5 Sur 0 -- -- 97
2019-12-11 02:00:00 2.4 0 Calma 5 Nordeste 0 -- -- 98
2019-12-11 01:00:00 1.6 2 Sur 5 Norte 0 -- -- 97
2019-12-11 00:00:00 2.2 3 Sudeste 5 Este 0 -- -- 97
2019-12-10 23:00:00 2 3 Sudoeste 6 Sudoeste 0 -- -- 96
2019-12-10 22:00:00 2.4 4 Norte 6 Norte 0 -- -- 97
2019-12-10 21:00:00 2.3 3 Nordeste 5 Nordeste 0 -- -- 95
2019-12-10 20:00:00 2.9 4 Norte 5 Norte 0 -- -- 94
2019-12-10 19:00:00 4.1 0 Calma 4 Sur 0 -- -- 89
2019-12-10 18:00:00 4.9 2 Sudoeste 6 Sudoeste 0 -- -- 87
2019-12-10 17:00:00 6.3 3 Sudoeste 7 Sudoeste 0 -- -- 85
2019-12-10 16:00:00 7 3 Sudoeste 7 Sur 0 -- -- 82
2019-12-10 15:00:00 7.2 2 Sudoeste 5 Sur 0 -- -- 79
2019-12-10 14:00:00 6.2 0 Calma 5 Sur 0 -- -- 77
2019-12-10 13:00:00 5.7 3 Sudoeste 6 Sur 0 -- -- 83
2019-12-10 12:00:00 4.5 3 Oeste 6 Sur 0 -- -- 86
2019-12-10 11:00:00 3.5 3 Norte 12 Norte 0 -- -- 84
2019-12-10 10:00:00 1 8 Norte 11 Norte 0 -- -- 92
2019-12-10 09:00:00 0.4 3 Norte 11 Norte 0 -- -- 90
2019-12-10 08:00:00 0.2 8 Norte 13 Norte 0 -- -- 93
2019-12-10 07:00:00 -0.4 6 Norte 11 Norte 0 -- -- 93
2019-12-10 06:00:00 0.1 6 Norte 15 Norte 0 -- -- 92
2019-12-10 05:00:00 0 13 Norte 17 Norte 0 -- -- 96
2019-12-10 04:00:00 0 7 Norte 10 Norte 0 -- -- 96
2019-12-10 03:00:00 0.6 7 Nordeste 9 Nordeste 0 -- -- 95
2019-12-10 02:00:00 2.6 4 Norte 19 Norte 0 -- -- 87
2019-12-10 01:00:00 3.6 13 Norte 19 Norte 0 -- -- 88
2019-12-10 00:00:00 3.6 10 Norte 26 Norte 0 -- -- 94
2019-12-09 23:00:00 3.7 9 Norte 32 Noroeste 0 -- -- 93
2019-12-09 22:00:00 3.8 7 Norte 22 Nordeste 0 -- -- 94
2019-12-09 21:00:00 4.2 14 Norte 23 Norte 0 -- -- 92
2019-12-09 20:00:00 4.5 14 Norte 24 Norte 0 -- -- 91
2019-12-09 19:00:00 5.3 15 Norte 28 Noroeste 0 -- -- 85
2019-12-09 18:00:00 5.1 4 Noroeste 21 Nordeste 0 -- -- 86
2019-12-09 17:00:00 5.9 14 Nordeste 27 Norte 0 -- -- 85
2019-12-09 16:00:00 6.3 19 Norte 28 Norte 0 -- -- 82
2019-12-09 15:00:00 6.2 14 Noroeste 28 Noroeste 0 -- -- 81
2019-12-09 14:00:00 6.7 13 Noroeste 27 Noroeste 0 -- -- 81
2019-12-09 13:00:00 6.5 5 Sudoeste 20 Norte 0 -- -- 78
2019-12-09 12:00:00 6.4 12 Norte 28 Norte 0 -- -- 76
2019-12-09 11:00:00 4.1 17 Norte 32 Norte 0 -- -- 81
2019-12-09 10:00:00 4.6 24 Norte 34 Norte 0 -- -- 72
2019-12-09 09:00:00 4.2 17 Norte 24 Noroeste 0 -- -- 71
2019-12-09 08:00:00 3.5 14 Nordeste 22 Norte 0 -- -- 78
2019-12-09 07:00:00 3.5 13 Norte 29 Norte 0 -- -- 81
2019-12-09 06:00:00 3.1 15 Norte 26 Norte 0 -- -- 84
2019-12-09 05:00:00 3.1 9 Norte 20 Norte 0 -- -- 88
2019-12-09 04:00:00 3.6 8 Norte 26 Nordeste 0 -- -- 91
2019-12-09 03:00:00 4.2 18 Nordeste 31 Nordeste 0 -- -- 92
2019-12-09 02:00:00 4.3 16 Nordeste 25 Nordeste 0 -- -- 90
2019-12-09 01:00:00 4.7 7 Norte 22 Noroeste 0 -- -- 90
2019-12-09 00:00:00 5 6 Norte 23 Norte 0 -- -- 94
2019-12-08 23:00:00 6 16 Norte 40 Noroeste 0 -- -- 93
2019-12-08 22:00:00 6.6 15 Noroeste 30 Noroeste 0 -- -- 92
2019-12-08 21:00:00 7.5 17 Noroeste 27 Noroeste 0 -- -- 92
2019-12-08 20:00:00 8 15 Noroeste 24 Noroeste 0 -- -- 95
2019-12-08 19:00:00 7.9 9 Norte 19 Noroeste 0 -- -- 91
2019-12-08 18:00:00 8.5 6 Norte 30 Noroeste 0 -- -- 94
2019-12-08 17:00:00 9.5 19 Noroeste 37 Noroeste 0 -- -- 93
2019-12-08 16:00:00 9.8 15 Noroeste 35 Noroeste 0 -- -- 95
2019-12-08 15:00:00 9.8 19 Noroeste 29 Noroeste 0 -- -- 96
2019-12-08 14:00:00 9.7 15 Noroeste 33 Noroeste 0 -- -- 97
2019-12-08 13:00:00 10.1 17 Noroeste 32 Noroeste 0 -- -- 94
2019-12-08 12:00:00 9.7 7 Noroeste 28 Noroeste 0.4 -- -- 96
2019-12-08 11:00:00 9.3 10 Noroeste 28 Noroeste 0 -- -- 99
2019-12-08 10:00:00 8.1 7 Norte 22 Noroeste 0 -- -- 100
2019-12-08 09:00:00 7.1 3 Sudoeste 10 Oeste 0 -- -- 100
2019-12-08 08:00:00 4.7 3 Sudoeste 6 Sur 0 -- -- 99
2019-12-08 07:00:00 3.5 0 Calma 4 Sudeste 0.2 -- -- 99
2019-12-08 06:00:00 3.5 0 Calma 3 Sudoeste 0 -- -- 98
2019-12-08 05:00:00 3.1 0 Calma 6 Sudoeste 0 -- -- 97
2019-12-08 04:00:00 3.9 4 Sur 8 Sur 0.2 -- -- 96
2019-12-08 03:00:00 4.6 0 Calma 8 Oeste 0 -- -- 96
2019-12-08 02:00:00 5.2 2 Oeste 6 Norte 0 -- -- 93
2019-12-08 01:00:00 4.6 3 Norte 10 Norte 0 -- -- 93
2019-12-08 00:00:00 5.3 3 Norte 9 Norte 0 -- -- 88
2019-12-07 23:00:00 6 8 Norte 24 Noroeste 0 -- -- 87
2019-12-07 22:00:00 6 9 Norte 14 Noroeste 0 -- -- 85
2019-12-07 21:00:00 7.4 0 Calma 13 Noroeste 0 -- -- 83
2019-12-07 20:00:00 7.3 8 Norte 13 Norte 0 -- -- 88
2019-12-07 19:00:00 7.9 6 Oeste 11 Oeste 0 -- -- 81
2019-12-07 18:00:00 9.1 11 Noroeste 24 Oeste 0 -- -- 74
2019-12-07 17:00:00 11.2 10 Oeste 20 Oeste 0 -- -- 72
2019-12-07 16:00:00 12.1 12 Oeste 24 Oeste 0 -- -- 65
2019-12-07 15:00:00 11.4 6 Sur 22 Sudoeste 0 -- -- 69
2019-12-07 14:00:00 11.7 12 Oeste 25 Oeste 0 -- -- 62
2019-12-07 13:00:00 10.8 9 Oeste 19 Oeste 0 -- -- 65
2019-12-07 12:00:00 8.2 2 Sudoeste 8 Oeste 0 -- -- 86
2019-12-07 11:00:00 4.4 0 Calma 5 Sudoeste 0 -- -- 96
2019-12-07 10:00:00 2.6 0 Calma 7 Norte 0 -- -- 96
2019-12-07 09:00:00 1.9 0 Calma 8 Norte 0 -- -- 98
2019-12-07 08:00:00 1.4 3 Nordeste 9 Oeste 0 -- -- 97
2019-12-07 07:00:00 2.6 3 Nordeste 12 Norte 0 -- -- 95
2019-12-07 06:00:00 1.9 5 Norte 8 Norte 0 -- -- 98
2019-12-07 05:00:00 1.9 2 Este 11 Norte 0 -- -- 96
2019-12-07 04:00:00 1.9 8 Norte 12 Nordeste 0 -- -- 97
2019-12-07 03:00:00 2.1 6 Norte 8 Norte 0 -- -- 97
2019-12-07 02:00:00 2.8 0 Calma 10 Norte 0 -- -- 96
2019-12-07 01:00:00 2.5 4 Norte 9 Norte 0 -- -- 95
2019-12-07 00:00:00 2.4 8 Norte 9 Norte 0 -- -- 95
2019-12-06 23:00:00 2.9 3 Nordeste 8 Oeste 0 -- -- 94
2019-12-06 22:00:00 2.7 5 Oeste 9 Sudoeste 0 -- -- 90
2019-12-06 21:00:00 4.2 0 Calma 6 Nordeste 0 -- -- 88
2019-12-06 20:00:00 5.6 3 Noroeste 6 Oeste 0 -- -- 84
2019-12-06 19:00:00 6.8 5 Noroeste 11 Noroeste 0 -- -- 79
2019-12-06 18:00:00 7.8 4 Oeste 14 Oeste 0 -- -- 71
2019-12-06 17:00:00 9.2 9 Oeste 18 Oeste 0 -- -- 66
2019-12-06 16:00:00 9.9 11 Oeste 22 Oeste 0 -- -- 65
2019-12-06 15:00:00 10.2 10 Oeste 20 Oeste 0 -- -- 63
2019-12-06 14:00:00 10.5 4 Sur 10 Sur 0 -- -- 62
2019-12-06 13:00:00 8.5 2 Sudoeste 6 Sudoeste 0 -- -- 64
2019-12-06 12:00:00 7.2 3 Sur 5 Sur 0 -- -- 71
2019-12-06 11:00:00 4.3 0 Calma 11 Norte 0 -- -- 89
2019-12-06 10:00:00 2.8 3 Nordeste 15 Norte 0 -- -- 92
2019-12-06 09:00:00 2 13 Norte 16 Norte 0 -- -- 94
2019-12-06 08:00:00 1.6 6 Norte 13 Norte 0 -- -- 94
2019-12-06 07:00:00 1.8 10 Norte 16 Norte 0 -- -- 93
2019-12-06 06:00:00 1.5 10 Norte 17 Norte 0 -- -- 94
2019-12-06 05:00:00 1.4 11 Norte 13 Norte 0 -- -- 95
2019-12-06 04:00:00 1.5 6 Norte 10 Norte 0 -- -- 96
2019-12-06 03:00:00 2.1 7 Nordeste 13 Norte 0 -- -- 96
2019-12-06 02:00:00 2.8 6 Norte 9 Norte 0 -- -- 96
2019-12-06 01:00:00 3.4 8 Norte 11 Norte 0 -- -- 96
2019-12-06 00:00:00 4.5 4 Nordeste 6 Norte 0 -- -- 93
2019-12-05 23:00:00 5.3 2 Norte 6 Norte 0 -- -- 91
2019-12-05 22:00:00 5.6 2 Norte 6 Norte 0 -- -- 90
2019-12-05 21:00:00 6.1 0 Calma 5 Oeste 0 -- -- 87
2019-12-05 20:00:00 6.7 0 Calma 7 Sudoeste 0 -- -- 83
2019-12-05 19:00:00 7 4 Sudoeste 13 Oeste 0 -- -- 83
2019-12-05 18:00:00 8.2 5 Sudoeste 14 Oeste 0 -- -- 78
2019-12-05 17:00:00 10.1 6 Sudoeste 18 Sudoeste 0 -- -- 72
2019-12-05 16:00:00 10.9 9 Sur 16 Sur 0 -- -- 67
2019-12-05 15:00:00 11.5 6 Sudoeste 17 Sudoeste 0 -- -- 63
2019-12-05 14:00:00 11.7 8 Sudoeste 19 Sur 0 -- -- 64
2019-12-05 13:00:00 11.4 10 Sudoeste 23 Sudoeste 0 -- -- 64
2019-12-05 12:00:00 10.5 6 Sur 13 Sur 0 -- -- 64
2019-12-05 11:00:00 7 6 Sudoeste 9 Sudoeste 0 -- -- 76
2019-12-05 10:00:00 3.5 0 Calma 8 Sudoeste 0 -- -- 87
2019-12-05 09:00:00 2.7 3 Noroeste 13 Nordeste 0 -- -- 86
2019-12-05 08:00:00 0.5 5 Sudoeste 10 Este 0 -- -- 90
2019-12-05 07:00:00 1 5 Oeste 13 Este 0 -- -- 87
2019-12-05 06:00:00 1 2 Oeste 9 Este 0 -- -- 87
2019-12-05 05:00:00 1.1 4 Oeste 15 Norte 0 -- -- 90
2019-12-05 04:00:00 2.2 4 Sudoeste 11 Norte 0 -- -- 84
2019-12-05 03:00:00 3.5 6 Noroeste 27 Noroeste 0 -- -- 79
2019-12-05 02:00:00 3.8 11 Noroeste 31 Noroeste 0 -- -- 77
2019-12-05 01:00:00 4.6 11 Noroeste 28 Noroeste 0 -- -- 73
2019-12-05 00:00:00 5 12 Noroeste 18 Noroeste 0 -- -- 73
2019-12-04 23:00:00 5.2 14 Norte 19 Norte 0 -- -- 78
2019-12-04 22:00:00 4.3 6 Norte 9 Norte 0 -- -- 81
2019-12-04 21:00:00 4.9 5 Noroeste 13 Norte 0 -- -- 75
2019-12-04 20:00:00 4.6 8 Norte 19 Norte 0 -- -- 84
2019-12-04 19:00:00 6 13 Norte 18 Norte 0 -- -- 79
2019-12-04 18:00:00 6.2 6 Norte 10 Norte 0 -- -- 84
2019-12-04 17:00:00 9.3 0 Calma 6 Oeste 0 -- -- 66
2019-12-04 16:00:00 9.7 3 Oeste 14 Sur 0 -- -- 61
2019-12-04 15:00:00 10.8 5 Sudoeste 14 Sur 0 -- -- 57
2019-12-04 14:00:00 10.2 6 Sudoeste 13 Sudoeste 0 -- -- 60
2019-12-04 13:00:00 8.6 0 Calma 9 Sudoeste 0 -- -- 68
2019-12-04 12:00:00 7.3 4 Sudoeste 8 Sudoeste 0 -- -- 74
2019-12-04 11:00:00 4.3 0 Calma 4 Sudoeste 0 -- -- 84
2019-12-04 10:00:00 1.3 3 Sur -- -- -- -- -- 88
2019-12-04 09:00:00 0.1 11 Norte 14 Norte 0 -- -- 95
2019-12-04 08:00:00 0.2 4 Norte 10 Norte 0 -- -- 94
2019-12-04 07:00:00 0.4 4 Noroeste 11 Oeste 0 -- -- 92
2019-12-04 06:00:00 0.7 6 Oeste 16 Norte 0 -- -- 90
2019-12-04 05:00:00 0.9 0 Calma 9 Nordeste 0 -- -- 91
2019-12-04 04:00:00 0.2 5 Nordeste 9 Norte 0 -- -- 95
2019-12-04 03:00:00 -0.8 6 Norte 10 Norte 0 -- -- 96
2019-12-04 02:00:00 -1.2 7 Norte 10 Nordeste 0 -- -- 97
2019-12-04 01:00:00 -1.4 6 Nordeste 8 Nordeste 0 -- -- 96
2019-12-04 00:00:00 -0.8 5 Nordeste 7 Nordeste 0 -- -- 96
2019-12-03 23:00:00 -0.5 5 Norte 8 Norte 0 -- -- 96
2019-12-03 22:00:00 -0.5 4 Nordeste 11 Norte 0 -- -- 94
2019-12-03 21:00:00 -0.7 6 Norte 11 Norte 0 -- -- 93
2019-12-03 20:00:00 -0.4 9 Norte 12 Norte 0 -- -- 90
2019-12-03 19:00:00 0.8 4 Nordeste 6 Norte 0 -- -- 87
2019-12-03 18:00:00 3.9 2 Oeste 12 Sudoeste 0 -- -- 68
2019-12-03 17:00:00 6.1 5 Sudoeste 16 Sudoeste 0 -- -- 61
2019-12-03 16:00:00 7.4 5 Sudoeste 16 Sur 0 -- -- 52
2019-12-03 15:00:00 7.3 6 Sudoeste 14 Sudoeste 0 -- -- 52
2019-12-03 14:00:00 6.5 7 Sur 10 Sur 0 -- -- 52
2019-12-03 13:00:00 5.2 5 Sur 10 Oeste 0 -- -- 58
2019-12-03 12:00:00 3.7 3 Sudeste 12 Sur 0 -- -- 64
2019-12-03 11:00:00 1.8 0 Calma 9 Norte 0 -- -- 74
2019-12-03 10:00:00 -1.5 8 Norte 15 Norte 0 -- -- 87
2019-12-03 09:00:00 -2.9 10 Norte 14 Norte 0 -- -- 91
2019-12-03 08:00:00 -2.9 7 Norte 10 Norte 0 -- -- 91
2019-12-03 07:00:00 -2.9 6 Norte 9 Norte 0 -- -- 92
2019-12-03 06:00:00 -3 4 Norte 10 Norte 0 -- -- 91
2019-12-03 05:00:00 -2.5 7 Norte 12 Norte 0 -- -- 87
2019-12-03 04:00:00 -2.2 7 Norte 15 Norte 0 -- -- 86
2019-12-03 03:00:00 -1.5 10 Norte 12 Norte 0 -- -- 88
2019-12-03 02:00:00 -1.2 7 Norte 9 Norte 0 -- -- 88
2019-12-03 01:00:00 -0.6 3 Nordeste 6 Norte 0 -- -- 85
2019-12-03 00:00:00 0.7 4 Norte 10 Oeste 0 -- -- 79
2019-12-02 23:00:00 2.4 3 Oeste 14 Nordeste 0 -- -- 61
2019-12-02 22:00:00 3.8 13 Nordeste 28 Nordeste 0 -- -- 59
2019-12-02 21:00:00 4 12 Nordeste 24 Nordeste 0 -- -- 64
2019-12-02 20:00:00 4.3 16 Este 29 Este 0 -- -- 64
2019-12-02 19:00:00 4.6 22 Este 31 Este 0 -- -- 66
2019-12-02 18:00:00 5.2 15 Este 37 Nordeste 0 -- -- 70
2019-12-02 17:00:00 6.4 25 Este 37 Este 0 -- -- 67
2019-12-02 16:00:00 6.6 25 Este 40 Este 0 -- -- 64
2019-12-02 15:00:00 7 32 Este 46 Este 0 -- -- 64
2019-12-02 14:00:00 7.2 27 Este 42 Nordeste 0 -- -- 66
2019-12-02 13:00:00 6.9 24 Nordeste 41 Nordeste 0 -- -- 69
2019-12-02 12:00:00 6.9 25 Este 38 Este 0 -- -- 69
2019-12-02 11:00:00 7.3 11 Nordeste 24 Este 0 -- -- 68
2019-12-02 10:00:00 5.2 4 Sudoeste 22 Este 0 -- -- 79
2019-12-02 09:00:00 3.7 6 Nordeste 15 Nordeste 0 -- -- 84
2019-12-02 08:00:00 3.3 2 Este 17 Este 0 -- -- 83
2019-12-02 07:00:00 3.9 4 Sudoeste 23 Sudoeste 0 -- -- 79
2019-12-02 06:00:00 3.7 12 Norte 22 Este 0 -- -- 79
2019-12-02 05:00:00 0.5 7 Sudoeste 14 Sur 0 -- -- 88
2019-12-02 04:00:00 0.6 3 Norte 15 Nordeste 0 -- -- 94
2019-12-02 03:00:00 0.6 8 Norte 15 Nordeste 0 -- -- 94
2019-12-02 02:00:00 0.8 4 Norte 11 Este 0 -- -- 94
2019-12-02 01:00:00 2 3 Norte 9 Norte 0 -- -- 92
2019-12-02 00:00:00 3 4 Nordeste 16 Nordeste 0 -- -- 88
2019-12-01 23:00:00 4.2 8 Nordeste 16 Nordeste 0 -- -- 82
2019-12-01 22:00:00 4.5 10 Norte 27 Norte 0 -- -- 80
2019-12-01 21:00:00 3.2 5 Noroeste 12 Norte 0 -- -- 89
2019-12-01 20:00:00 3.6 4 Norte 11 Nordeste 0 -- -- 90
2019-12-01 19:00:00 3.8 7 Norte 9 Norte 0 -- -- 90
2019-12-01 18:00:00 5.7 8 Nordeste 22 Este 0 -- -- 82
2019-12-01 17:00:00 6.7 17 Este 38 Nordeste 0 -- -- 73
2019-12-01 16:00:00 7.9 20 Este 32 Nordeste 0 -- -- 69
2019-12-01 15:00:00 7.6 17 Nordeste 31 Nordeste 0.2 -- -- 74
2019-12-01 14:00:00 7.4 16 Nordeste 25 Este 0 -- -- 80
2019-12-01 13:00:00 6.2 13 Este 22 Este 0 -- -- 85
2019-12-01 12:00:00 6 15 Este 26 Este 0 -- -- 90
2019-12-01 11:00:00 5.2 12 Este 18 Este 0 -- -- 96
2019-12-01 10:00:00 4.5 6 Este 10 Este 0.4 -- -- 100
2019-12-01 09:00:00 4.3 5 Este 7 Este 0 -- -- 100
2019-12-01 08:00:00 4.2 3 Sudeste 12 Sur 0 -- -- 100
2019-12-01 07:00:00 4.2 4 Sudeste 15 Sur 0.4 -- -- 100
2019-12-01 06:00:00 4.4 6 Sur 21 Sudoeste 0.4 -- -- 100
2019-12-01 05:00:00 4.3 8 Sudoeste 19 Sur 0.2 -- -- 100
2019-12-01 04:00:00 4.1 6 Sur 13 Sur 0.2 -- -- 100
2019-12-01 03:00:00 3.6 5 Este 13 Sudeste 0.2 -- -- 98
2019-12-01 02:00:00 3.5 3 Este 17 Sudeste 0 -- -- 96
2019-12-01 01:00:00 4 4 Este 8 Este 0.2 -- -- 95
2019-12-01 00:00:00 4.2 4 Nordeste 9 Sur 0 -- -- 96
2019-11-30 23:00:00 4.3 0 Calma 6 Sudoeste 0 -- -- 95
2019-11-30 22:00:00 4.6 7 Oeste 10 Oeste 0 -- -- 95
2019-11-30 21:00:00 4.7 3 Oeste 23 Oeste 0 -- -- 94
2019-11-30 20:00:00 4.9 3 Sur 17 Sudeste 0 -- -- 94
2019-11-30 19:00:00 4.4 7 Sudeste 27 Noroeste 0 -- -- 93
2019-11-30 18:00:00 5.4 14 Noroeste 28 Noroeste 0.6 -- -- 85
2019-11-30 17:00:00 6.5 11 Noroeste 40 Noroeste 0 -- -- 78
2019-11-30 16:00:00 7.5 25 Oeste 44 Oeste 0 -- -- 68
2019-11-30 15:00:00 8 32 Noroeste 51 Oeste 0 -- -- 76
2019-11-30 14:00:00 7.1 19 Oeste 35 Noroeste 0 -- -- 87
2019-11-30 13:00:00 6.8 21 Noroeste 49 Oeste 0.4 -- -- 86
2019-11-30 12:00:00 8 24 Noroeste 45 Noroeste 0.2 -- -- 91
2019-11-30 11:00:00 7.7 22 Noroeste 45 Noroeste 0 -- -- 92
2019-11-30 10:00:00 8.3 24 Noroeste 43 Noroeste 1.4 -- -- 99
2019-11-30 09:00:00 8.2 4 Sur 13 Sur 0 -- -- 100
2019-11-30 08:00:00 7.5 0 Calma 6 Noroeste 0.8 -- -- 100
2019-11-30 07:00:00 7.4 0 Calma 9 Norte 0.8 -- -- 100
2019-11-30 06:00:00 7.4 3 Nordeste 6 Este 0 -- -- 100
2019-11-30 05:00:00 7.4 2 Sudeste 7 Sudeste 0.2 -- -- 100
2019-11-30 04:00:00 7.4 2 Sur 9 Sudeste 0.2 -- -- 100
2019-11-30 03:00:00 7.4 6 Sudeste 9 Sudeste 0.2 -- -- 99
2019-11-30 02:00:00 7.6 2 Este 8 Sudeste 1 -- -- 99
2019-11-30 01:00:00 7.7 3 Sudeste 11 Sudeste 0.4 -- -- 98
2019-11-30 00:00:00 7.2 4 Nordeste 8 Este 0.2 -- -- 98
2019-11-29 23:00:00 7.1 3 Nordeste 10 Norte 0 -- -- 97
2019-11-29 22:00:00 6.5 9 Norte 11 Norte 0 -- -- 97
2019-11-29 21:00:00 6.1 8 Norte 17 Norte 0 -- -- 97
2019-11-29 20:00:00 6.1 6 Norte 10 Norte 0 -- -- 96
2019-11-29 19:00:00 6.9 7 Norte 10 Norte 0 -- -- 94
2019-11-29 18:00:00 9.5 2 Nordeste 9 Oeste 0 -- -- 83
2019-11-29 17:00:00 11.6 5 Sudoeste 12 Sur 0 -- -- 74
2019-11-29 16:00:00 12.6 5 Oeste 22 Oeste 0 -- -- 65
2019-11-29 15:00:00 12.4 12 Noroeste 23 Noroeste 0 -- -- 55
2019-11-29 14:00:00 11.8 16 Oeste 24 Oeste 0 -- -- 65
2019-11-29 13:00:00 10.6 16 Noroeste 28 Oeste 0 -- -- 81
2019-11-29 12:00:00 10 17 Oeste 26 Oeste 0 -- -- 82
2019-11-29 11:00:00 8.5 18 Noroeste 30 Noroeste 0 -- -- 89
2019-11-29 10:00:00 6.6 9 Noroeste 15 Noroeste 0 -- -- 99
2019-11-29 09:00:00 5.8 3 Oeste 8 Sudoeste 0 -- -- 97
2019-11-29 08:00:00 6.3 7 Nordeste 14 Este 0 -- -- 96
2019-11-29 07:00:00 6.6 6 Nordeste 13 Nordeste 0 -- -- 95
2019-11-29 06:00:00 7 6 Nordeste 10 Este 0 -- -- 96
2019-11-29 05:00:00 7.2 3 Nordeste 19 Noroeste 0 -- -- 94
2019-11-29 04:00:00 8.3 11 Noroeste 19 Noroeste 0 -- -- 93
2019-11-29 03:00:00 8.1 13 Noroeste 26 Noroeste 0 -- -- 94
2019-11-29 02:00:00 8.8 16 Noroeste 26 Noroeste 0 -- -- 94
2019-11-29 01:00:00 9.2 21 Noroeste 30 Noroeste 0 -- -- 95
2019-11-29 00:00:00 9.6 15 Oeste 27 Oeste 0 -- -- 94
2019-11-28 23:00:00 10 13 Noroeste 35 Oeste 0 -- -- 94
2019-11-28 22:00:00 10 8 Noroeste 42 Noroeste 0 -- -- 98
2019-11-28 21:00:00 9.4 13 Oeste 29 Noroeste 0.6 -- -- 100
2019-11-28 20:00:00 8.3 2 Sudoeste 4 Sur 2.4 -- -- 100
2019-11-28 19:00:00 8.3 0 Calma 10 Oeste 2.4 -- -- 99
2019-11-28 18:00:00 8.4 4 Sudoeste 10 Oeste 1.2 -- -- 99
2019-11-28 17:00:00 8.4 6 Oeste 23 Oeste 1.6 -- -- 98
2019-11-28 16:00:00 8.9 14 Noroeste 31 Oeste 0.6 -- -- 94
2019-11-28 15:00:00 10.2 18 Oeste 31 Oeste 0 -- -- 89
2019-11-28 14:00:00 10.5 14 Noroeste 37 Noroeste 0 -- -- 86
2019-11-28 13:00:00 10.5 9 Noroeste 26 Noroeste 0 -- -- 90
2019-11-28 12:00:00 9.9 5 Sudoeste 17 Oeste 0 -- -- 97
2019-11-28 11:00:00 9 0 Calma 15 Oeste 0 -- -- 97
2019-11-28 10:00:00 8.4 6 Oeste 12 Sudoeste 0 -- -- 99
2019-11-28 09:00:00 8.2 3 Oeste 15 Sudoeste 0 -- -- 98
2019-11-28 08:00:00 8.2 5 Sudoeste 28 Noroeste 0 -- -- 97
2019-11-28 07:00:00 8.9 19 Noroeste 45 Noroeste 0 -- -- 96
2019-11-28 06:00:00 8.5 20 Noroeste 32 Oeste 0.4 -- -- 98
2019-11-28 05:00:00 8.3 18 Noroeste 35 Oeste 0.4 -- -- 98
2019-11-28 04:00:00 8.1 17 Noroeste 34 Oeste 0.4 -- -- 98
2019-11-28 03:00:00 7.8 19 Noroeste 38 Oeste 0.2 -- -- 99
2019-11-28 02:00:00 7.6 20 Noroeste 43 Noroeste 0.2 -- -- 98
2019-11-28 01:00:00 7.3 22 Noroeste 41 Noroeste 1 -- -- 98
2019-11-28 00:00:00 7.1 22 Noroeste 45 Noroeste 1.6 -- -- 98
2019-11-27 23:00:00 6.9 20 Noroeste 44 Oeste 0.2 -- -- 98
2019-11-27 22:00:00 6.7 31 Noroeste 49 Noroeste 0.6 -- -- 98
2019-11-27 21:00:00 6.7 26 Oeste 43 Oeste 0.4 -- -- 98
2019-11-27 20:00:00 6.4 16 Oeste 38 Noroeste 0.6 -- -- 98
2019-11-27 19:00:00 6.4 19 Noroeste 38 Oeste 0.2 -- -- 96
2019-11-27 18:00:00 6.8 18 Oeste 39 Oeste 0 -- -- 95
2019-11-27 17:00:00 6.8 24 Noroeste 52 Oeste 1.4 -- -- 90
2019-11-27 16:00:00 6.9 19 Oeste 44 Noroeste 0.2 -- -- 93
2019-11-27 15:00:00 7.1 22 Oeste 37 Noroeste 0.4 -- -- 90
2019-11-27 14:00:00 7.4 23 Noroeste 39 Oeste 0 -- -- 93
2019-11-27 06:00:00 -- -- -- -- -- -- -- -- --
2019-11-27 05:00:00 -- -- -- -- -- -- -- -- --
2019-11-27 04:00:00 6.1 37 Noroeste 63 Noroeste 0 -- -- 94
2019-11-27 03:00:00 6 27 Noroeste 51 Oeste 0.2 -- -- 94
2019-11-27 02:00:00 5.5 25 Oeste 55 Noroeste 0 -- -- 94
2019-11-27 01:00:00 5.2 26 Oeste 70 Noroeste 0.2 -- -- 94
2019-11-27 00:00:00 5.3 33 Noroeste 60 Noroeste 0 -- -- 93
2019-11-26 23:00:00 5.6 31 Noroeste 54 Noroeste 0 -- -- 93
2019-11-26 22:00:00 5.9 33 Noroeste 60 Oeste 0.2 -- -- 95
2019-11-26 21:00:00 6.5 32 Noroeste 59 Noroeste 0.2 -- -- 95
2019-11-26 20:00:00 7 33 Noroeste 64 Noroeste 2 -- -- 93
2019-11-26 19:00:00 8.2 33 Noroeste 77 Noroeste 2.4 -- -- 92
2019-11-26 18:00:00 9.6 20 Oeste 65 Oeste 0.2 -- -- 87
2019-11-26 17:00:00 13.2 13 Oeste 28 Sudoeste 0 -- -- 57
2019-11-26 16:00:00 13.1 13 Oeste 48 Oeste 0 -- -- 53
2019-11-26 15:00:00 13.5 28 Oeste 47 Oeste 0.2 -- -- 55
2019-11-26 14:00:00 12.5 15 Noroeste 33 Oeste 0 -- -- 69
2019-11-26 13:00:00 11.6 18 Oeste 38 Noroeste 0 -- -- 80
2019-11-26 12:00:00 10.7 11 Oeste 30 Noroeste 0 -- -- 99
2019-11-26 11:00:00 8.3 2 Sudoeste 5 Sur 0 -- -- 100
2019-11-26 10:00:00 7.7 0 Calma 6 Norte 0 -- -- 100
2019-11-26 09:00:00 7.1 3 Nordeste 7 Norte 0 -- -- 100
2019-11-26 08:00:00 6.9 4 Norte 6 Norte 0.6 -- -- 100
2019-11-26 07:00:00 6.8 4 Este 10 Sudeste 0.2 -- -- 100
2019-11-26 06:00:00 6.5 4 Este 13 Este 0.2 -- -- 100
2019-11-26 05:00:00 6.5 10 Este 15 Este 0 -- -- 99
2019-11-26 04:00:00 6.5 0 Calma 8 Norte 0 -- -- 99
2019-11-26 03:00:00 6.4 4 Nordeste 9 Norte 0 -- -- 98
2019-11-26 02:00:00 6.2 5 Nordeste 8 Norte 0 -- -- 97
2019-11-26 01:00:00 5.9 0 Calma 11 Noroeste 0 -- -- 96
2019-11-26 00:00:00 6.6 3 Norte 13 Oeste 0 -- -- 93
2019-11-25 23:00:00 6.7 10 Oeste 14 Noroeste 0 -- -- 95
2019-11-25 22:00:00 7.3 5 Oeste 13 Oeste 0 -- -- 92
2019-11-25 21:00:00 8.1 5 Sur 15 Este 0 -- -- 88
2019-11-25 20:00:00 8.6 7 Sur 28 Noroeste 0 -- -- 87
2019-11-25 19:00:00 8.8 8 Noroeste 20 Norte 0 -- -- 85
2019-11-25 18:00:00 8.9 8 Noroeste 21 Noroeste 0 -- -- 86
2019-11-25 17:00:00 9.2 10 Noroeste 23 Noroeste 0 -- -- 85
2019-11-25 16:00:00 9.3 15 Noroeste 39 Noroeste 0 -- -- 84
2019-11-25 15:00:00 9.1 15 Noroeste 36 Noroeste 0 -- -- 85
2019-11-25 14:00:00 9.1 23 Noroeste 39 Noroeste 0 -- -- 90
2019-11-25 13:00:00 9 24 Noroeste 38 Noroeste 0 -- -- 92
2019-11-25 12:00:00 8.7 20 Noroeste 38 Noroeste 0 -- -- 92
2019-11-25 11:00:00 8.4 18 Noroeste 40 Noroeste 0 -- -- 94
2019-11-25 10:00:00 7.6 18 Noroeste 37 Oeste 0.2 -- -- 97
2019-11-25 09:00:00 7.5 6 Noroeste 34 Noroeste 0 -- -- 94
2019-11-25 08:00:00 7.7 18 Noroeste 44 Oeste 0 -- -- 95
2019-11-25 07:00:00 8.3 12 Oeste 26 Noroeste 0.2 -- -- 98
2019-11-25 06:00:00 8.2 10 Noroeste 26 Oeste 0.2 -- -- 97
2019-11-25 05:00:00 8 11 Noroeste 26 Noroeste 0 -- -- 96
2019-11-25 04:00:00 8.2 19 Noroeste 51 Oeste 0 -- -- 96
2019-11-25 03:00:00 8.5 22 Oeste 35 Noroeste 0 -- -- 100
2019-11-25 02:00:00 7.6 12 Noroeste 29 Noroeste 0 -- -- 100
2019-11-25 01:00:00 5.7 4 Oeste 16 Sur 0.2 -- -- 100
2019-11-25 00:00:00 5.5 0 Calma 6 Este 0.8 -- -- 100
2019-11-24 23:00:00 5.4 2 Este 6 Sur 0.4 -- -- 100
2019-11-24 22:00:00 5.3 4 Nordeste 9 Nordeste 0.4 -- -- 100
2019-11-24 21:00:00 5.2 3 Sudeste 14 Sudeste 0.8 -- -- 100
2019-11-24 20:00:00 5.1 5 Este 10 Este 1.2 -- -- 99
2019-11-24 19:00:00 4.9 4 Nordeste 9 Nordeste 1.2 -- -- 99
2019-11-24 18:00:00 4.7 7 Nordeste 10 Nordeste 1.2 -- -- 98
2019-11-24 17:00:00 5 4 Sudeste 6 Sudeste 0.4 -- -- 97
2019-11-24 16:00:00 5.2 2 Oeste 6 Oeste 0.6 -- -- 96
2019-11-24 15:00:00 5.7 4 Sudoeste 18 Oeste 0.2 -- -- 92
2019-11-24 14:00:00 6.4 10 Oeste 18 Oeste 0 -- -- 84
2019-11-24 13:00:00 6.2 8 Oeste 28 Noroeste 0 -- -- 85
2019-11-24 12:00:00 5.2 14 Noroeste 22 Noroeste 0 -- -- 87
2019-11-24 11:00:00 4.6 10 Noroeste 28 Noroeste 0 -- -- 87
2019-11-24 10:00:00 4.1 4 Oeste 23 Noroeste 0 -- -- 89
2019-11-24 09:00:00 3.7 10 Noroeste 27 Noroeste 0 -- -- 88
2019-11-24 08:00:00 3.3 13 Norte 37 Norte 0 -- -- 89
2019-11-24 07:00:00 3.5 17 Noroeste 39 Noroeste 0 -- -- 85
2019-11-24 06:00:00 3.4 21 Noroeste 39 Noroeste 0 -- -- 90
2019-11-24 05:00:00 3.6 17 Noroeste 31 Norte 0 -- -- 92
2019-11-24 04:00:00 3.6 12 Noroeste 35 Noroeste 0 -- -- 93
2019-11-24 03:00:00 3.6 15 Noroeste 28 Noroeste 0 -- -- 92
2019-11-24 02:00:00 3.5 15 Noroeste 36 Noroeste 0 -- -- 91
2019-11-24 01:00:00 3.7 25 Noroeste 40 Noroeste 0 -- -- 88
2019-11-24 00:00:00 3.2 15 Noroeste 29 Oeste 0 -- -- 93
2019-11-23 23:00:00 3.6 19 Noroeste 45 Noroeste 0 -- -- 87
2019-11-23 22:00:00 3.8 14 Noroeste 40 Noroeste 0 -- -- 90
2019-11-23 21:00:00 4.5 19 Noroeste 44 Noroeste 0 -- -- 81
2019-11-23 20:00:00 4.5 24 Noroeste 44 Noroeste 0 -- -- 84
2019-11-23 19:00:00 4.2 26 Noroeste 53 Noroeste 0 -- -- 88
2019-11-23 18:00:00 4.3 17 Noroeste 44 Noroeste 0 -- -- 89
2019-11-23 17:00:00 4.6 25 Noroeste 47 Noroeste 0.2 -- -- 90
2019-11-23 16:00:00 5.4 26 Noroeste 51 Noroeste 0 -- -- 90
2019-11-23 15:00:00 5.8 29 Noroeste 50 Noroeste 0 -- -- 85
2019-11-23 14:00:00 6.8 25 Noroeste 56 Oeste 0 -- -- 74
2019-11-23 13:00:00 6.4 25 Noroeste 54 Noroeste 0 -- -- 78
2019-11-23 12:00:00 5.8 23 Noroeste 46 Noroeste 0 -- -- 80
2019-11-23 11:00:00 4.9 26 Noroeste 50 Noroeste 0 -- -- 81
2019-11-23 10:00:00 4.2 22 Noroeste 39 Noroeste 0 -- -- 85
2019-11-23 09:00:00 2.6 18 Oeste 39 Noroeste 0 -- -- 95
2019-11-23 08:00:00 2.7 9 Norte 46 Noroeste 0 -- -- 87
2019-11-23 07:00:00 2.6 17 Noroeste 47 Noroeste 0 -- -- 84
2019-11-23 06:00:00 2.9 26 Noroeste 53 Noroeste 0 -- -- 85
2019-11-23 05:00:00 3 36 Noroeste 65 Noroeste 0 -- -- 87
2019-11-23 04:00:00 2.5 39 Noroeste 58 Noroeste 0.2 -- -- 94
2019-11-23 03:00:00 2.4 19 Noroeste 66 Oeste 0.8 -- -- 95
2019-11-23 02:00:00 2.3 37 Noroeste 71 Oeste 1.2 -- -- 93
2019-11-23 01:00:00 2.8 37 Noroeste 73 Noroeste 2.2 -- -- 94
2019-11-23 00:00:00 3.8 35 Noroeste 65 Noroeste 1.6 -- -- 95
2019-11-22 23:00:00 4.8 23 Oeste 55 Oeste 0.6 -- -- 97
2019-11-22 22:00:00 5.2 25 Oeste 60 Oeste 1 -- -- 96
2019-11-22 21:00:00 5.8 27 Oeste 57 Oeste 1.4 -- -- 95
2019-11-22 20:00:00 5.3 19 Oeste 36 Oeste 1.6 -- -- 98
2019-11-22 19:00:00 4.4 11 Oeste 35 Oeste 3.4 -- -- 96
2019-11-22 18:00:00 4.9 7 Oeste 37 Oeste 0.2 -- -- 95
2019-11-22 17:00:00 5.6 22 Oeste 44 Oeste 1 -- -- 95
2019-11-22 16:00:00 6.5 24 Noroeste 59 Oeste 0.4 -- -- 87
2019-11-22 15:00:00 8.1 35 Noroeste 62 Noroeste 0.2 -- -- 82
2019-11-22 14:00:00 8.1 36 Oeste 59 Oeste 1.2 -- -- 97
2019-11-22 13:00:00 8.5 5 Sudoeste 14 Sudoeste 0.6 -- -- 100
2019-11-22 12:00:00 7.2 6 Sudoeste 15 Sur 1.2 -- -- 100
2019-11-22 11:00:00 5.9 3 Sudeste 18 Sur 0.4 -- -- 100
2019-11-22 10:00:00 5.5 8 Sur 22 Sur 1 -- -- 100
2019-11-22 09:00:00 5.1 9 Sur 20 Sur 0.2 -- -- 100
2019-11-22 08:00:00 4.6 8 Sudoeste 16 Sudoeste 0.6 -- -- 100
2019-11-22 07:00:00 4.3 5 Sudoeste 24 Sur 0.8 -- -- 100
2019-11-22 06:00:00 4.1 7 Sur 18 Sur 1.2 -- -- 100
2019-11-22 05:00:00 3.8 6 Sudoeste 15 Sur 0.6 -- -- 100
2019-11-22 04:00:00 2.8 4 Sudeste 9 Sudeste 0 -- -- 99
2019-11-22 03:00:00 2.4 3 Nordeste 8 Norte -- -- -- 99
2019-11-22 02:00:00 1.6 4 Nordeste 7 Nordeste 0 -- -- 98
2019-11-22 01:00:00 1.7 4 Nordeste 8 Nordeste 0 -- -- 98
2019-11-22 00:00:00 1.8 4 Nordeste 9 Norte 0 -- -- 98
2019-11-21 23:00:00 1.8 5 Norte 7 Norte 0 -- -- 98
2019-11-21 22:00:00 1.9 2 Norte 8 Nordeste 0 -- -- 97
2019-11-21 21:00:00 2.1 2 Nordeste 9 Norte 0 -- -- 96
2019-11-21 20:00:00 2.6 3 Nordeste 14 Norte 0 -- -- 94
2019-11-21 19:00:00 3.4 7 Nordeste 12 Norte 0 -- -- 91
2019-11-21 18:00:00 3.8 5 Nordeste 10 Noroeste 0 -- -- 89
2019-11-21 17:00:00 5 7 Norte 23 Noroeste 0 -- -- 82
2019-11-21 16:00:00 5.3 15 Noroeste 30 Noroeste 0 -- -- 82
2019-11-21 15:00:00 5.6 18 Noroeste 44 Noroeste 0 -- -- 82
2019-11-21 14:00:00 5.3 22 Noroeste 37 Noroeste 0 -- -- 82
2019-11-21 13:00:00 5 22 Noroeste 39 Noroeste 0 -- -- 85
2019-11-21 12:00:00 4.3 20 Noroeste 36 Noroeste 0 -- -- 90
2019-11-21 11:00:00 3.7 14 Noroeste 35 Oeste 0 -- -- 91
2019-11-21 10:00:00 2 0 Calma 9 Noroeste 0 -- -- 99
2019-11-21 09:00:00 1.4 5 Noroeste 28 Noroeste 0 -- -- 97
2019-11-21 08:00:00 -- -- -- -- -- -- -- -- --
2019-11-21 07:00:00 -- -- -- -- -- -- -- -- --
2019-11-21 06:00:00 -- -- -- -- -- -- -- -- --
2019-11-21 05:00:00 -- -- -- -- -- -- -- -- --
2019-11-21 04:00:00 -- -- -- -- -- -- -- -- --
2019-11-21 03:00:00 -- -- -- -- -- -- -- -- --
2019-11-21 02:00:00 -- -- -- -- -- -- -- -- --
2019-11-21 01:00:00 -- -- -- -- -- -- -- -- --
2019-11-21 00:00:00 -- -- -- -- -- -- -- -- --
2019-11-20 23:00:00 -- -- -- -- -- -- -- -- --
2019-11-20 22:00:00 -- -- -- -- -- -- -- -- --
2019-11-20 21:00:00 -- -- -- -- -- -- -- -- --
2019-11-20 20:00:00 4 0 Calma 14 Sur 0.8 -- -- 98
2019-11-20 19:00:00 4.3 6 Sur 13 Sudoeste 0 -- -- 97
2019-11-20 18:00:00 4.9 3 Sudeste 11 Sudoeste 0 -- -- 97
2019-11-20 17:00:00 5.5 5 Sudoeste 14 Sudoeste 0 -- -- 96
2019-11-20 16:00:00 5.8 5 Sudoeste 19 Sudoeste 0 -- -- 98
2019-11-20 15:00:00 5.4 9 Sudoeste 17 Sudoeste 0 -- -- 100
2019-11-20 14:00:00 4.7 7 Sudoeste 14 Sudoeste 0 -- -- 100
2019-11-20 13:00:00 4.2 3 Sur 12 Sur 0 -- -- 100
2019-11-20 12:00:00 3.7 4 Sudeste 10 Sudeste 2 -- -- 100
2019-11-20 11:00:00 3.3 5 Sudeste 12 Sudeste 0.2 -- -- 100
2019-11-20 10:00:00 3 10 Este 13 Este 0.4 -- -- 100
2019-11-20 09:00:00 2.8 3 Sudeste 8 Este 0.8 -- -- 100
2019-11-20 08:00:00 2.7 6 Este 13 Este 0.2 -- -- 100
2019-11-20 07:00:00 2.6 7 Este 12 Este 0 -- -- 100
2019-11-20 06:00:00 2.6 5 Este 14 Este 0.2 -- -- 100
2019-11-20 05:00:00 2.6 7 Este 12 Sudeste 0.4 -- -- 99
2019-11-20 04:00:00 2.6 4 Sudeste 13 Sudeste 0 -- -- 99
2019-11-20 03:00:00 2.7 6 Sudeste 13 Sudeste 0.4 -- -- 99
2019-11-20 02:00:00 2.6 7 Este 13 Sudeste 0 -- -- 98
2019-11-20 01:00:00 2.7 7 Este 10 Este 0.2 -- -- 98
2019-11-20 00:00:00 2.5 6 Este 10 Este 1.6 -- -- 98
2019-11-19 23:00:00 2.7 4 Norte 9 Este 0 -- -- 96
2019-11-19 22:00:00 3.1 4 Nordeste 8 Nordeste 0 -- -- 92
2019-11-19 21:00:00 3.3 4 Nordeste 6 Nordeste 0 -- -- 91
2019-11-19 20:00:00 3.5 2 Sur 5 Sur 0 -- -- 88
2019-11-19 19:00:00 3.8 0 Calma 4 Este 0 -- -- 87
2019-11-19 18:00:00 4.1 4 Sudeste 9 Este 0 -- -- 85
2019-11-19 17:00:00 4.5 3 Sudoeste 8 Sudoeste 0 -- -- 82
2019-11-19 16:00:00 4.8 4 Sudoeste 10 Sudoeste 0 -- -- 82
2019-11-19 15:00:00 5.1 4 Sudoeste 10 Sur 0 -- -- 78
2019-11-19 14:00:00 4.9 4 Sur 10 Sudoeste 0 -- -- 80
2019-11-19 13:00:00 4.1 4 Sur 10 Sur 0 -- -- 82
2019-11-19 12:00:00 3.2 0 Calma 8 Oeste 0 -- -- 83
2019-11-19 11:00:00 1.8 0 Calma 6 Norte 0 -- -- 91
2019-11-19 10:00:00 -0.2 5 Norte 10 Norte 0 -- -- 95
2019-11-19 09:00:00 -1.6 4 Nordeste 15 Norte 0 -- -- 96
2019-11-19 08:00:00 -1.8 10 Norte 13 Norte 0 -- -- 97
2019-11-19 07:00:00 -1.7 5 Nordeste 13 Nordeste 0 -- -- 96
2019-11-19 06:00:00 -1.6 10 Norte 13 Norte 0 -- -- 96
2019-11-19 05:00:00 -1.5 8 Nordeste 13 Norte 0 -- -- 96
2019-11-19 04:00:00 -1.6 6 Nordeste 10 Norte 0 -- -- 96
2019-11-19 03:00:00 -1.6 4 Nordeste 7 Nordeste 0 -- -- 96
2019-11-19 02:00:00 -1 4 Nordeste 8 Norte 0 -- -- 95
2019-11-19 01:00:00 -0.1 8 Norte 15 Norte 0 -- -- 92
2019-11-19 00:00:00 -0.2 9 Norte 14 Norte 0 -- -- 93
2019-11-18 23:00:00 0.2 8 Nordeste 13 Norte 0 -- -- 93
2019-11-18 22:00:00 0.8 11 Norte 15 Norte 0 -- -- 92
2019-11-18 21:00:00 1.5 11 Norte 20 Norte 0 -- -- 89
2019-11-18 20:00:00 2.3 8 Norte 15 Noroeste 0 -- -- 87
2019-11-18 19:00:00 3.9 10 Noroeste 16 Noroeste 0 -- -- 78
2019-11-18 18:00:00 4.6 11 Norte 21 Noroeste 0 -- -- 78
2019-11-18 17:00:00 6 10 Norte 22 Noroeste 0 -- -- 74
2019-11-18 16:00:00 6.7 13 Noroeste 26 Oeste 0 -- -- 70
2019-11-18 15:00:00 6.4 15 Norte 31 Noroeste 0 -- -- 69
2019-11-18 14:00:00 5.6 18 Norte 33 Norte 0 -- -- 76
2019-11-18 13:00:00 4.6 22 Norte 42 Norte 0 -- -- 82
2019-11-18 12:00:00 3.8 27 Norte 38 Norte 0 -- -- 87
2019-11-18 11:00:00 3.2 22 Norte 38 Norte 0 -- -- 90
2019-11-18 10:00:00 2.2 29 Norte 37 Norte 0 -- -- 94
2019-11-18 09:00:00 1.1 21 Norte 33 Norte 0 -- -- 97
2019-11-18 08:00:00 1.3 19 Norte 29 Norte 0 -- -- 95
2019-11-18 07:00:00 1.2 17 Norte 28 Norte 0 -- -- 95
2019-11-18 06:00:00 1.1 3 Oeste 24 Noroeste 0 -- -- 96
2019-11-18 05:00:00 0.8 5 Sudoeste 12 Este 0 -- -- 94
2019-11-18 04:00:00 1.6 5 Norte 13 Norte 0 -- -- 92
2019-11-18 03:00:00 2 8 Norte 27 Norte 0 -- -- 91
2019-11-18 02:00:00 2.2 14 Norte 20 Norte 0 -- -- 91
2019-11-18 01:00:00 1.7 4 Sudeste 30 Noroeste 0 -- -- 93
2019-11-18 00:00:00 2.6 21 Noroeste 37 Noroeste 0 -- -- 91
2019-11-17 23:00:00 2.6 24 Noroeste 35 Noroeste 0 -- -- 94
2019-11-17 22:00:00 2.5 12 Norte 28 Norte 0 -- -- 92
2019-11-17 21:00:00 2.7 7 Sudeste 49 Noroeste 0 -- -- 91
2019-11-17 20:00:00 3.1 26 Noroeste 41 Noroeste 0 -- -- 91
2019-11-17 19:00:00 3.3 25 Noroeste 54 Noroeste 0 -- -- 85
2019-11-17 18:00:00 3.9 32 Noroeste 60 Noroeste 0 -- -- 79
2019-11-17 17:00:00 4.4 32 Noroeste 49 Noroeste 0 -- -- 83
2019-11-17 16:00:00 5.5 23 Noroeste 49 Norte 0 -- -- 77
2019-11-17 15:00:00 5.5 28 Noroeste 51 Norte 0 -- -- 85
2019-11-17 14:00:00 5.9 24 Norte 46 Norte 0 -- -- 82
2019-11-17 13:00:00 5.8 20 Norte 37 Noroeste 0 -- -- 87
2019-11-17 12:00:00 5.2 17 Noroeste 40 Noroeste 0 -- -- 95
2019-11-17 11:00:00 4.7 20 Noroeste 38 Oeste 0.2 -- -- 98
2019-11-17 10:00:00 4.3 18 Noroeste 32 Noroeste 0.2 -- -- 100
2019-11-17 09:00:00 2.4 6 Oeste 19 Oeste 0.8 -- -- 100
2019-11-17 08:00:00 1.6 0 Calma 6 Sudoeste 0.4 -- -- 100
2019-11-17 07:00:00 2.2 4 Noroeste 12 Noroeste 0.4 -- -- 100
2019-11-17 06:00:00 1.7 0 Calma 11 Oeste 0.2 -- -- 99
2019-11-17 05:00:00 1.9 8 Oeste 12 Noroeste 0 -- -- 99
2019-11-17 04:00:00 2.2 7 Norte 26 Noroeste 0 -- -- 97
2019-11-17 03:00:00 2.7 18 Noroeste 29 Noroeste 0 -- -- 96
2019-11-17 02:00:00 2.5 16 Noroeste 27 Noroeste 0 -- -- 96
2019-11-17 01:00:00 2 16 Noroeste 30 Noroeste 0 -- -- 96
2019-11-17 00:00:00 2 13 Norte 32 Noroeste 0 -- -- 96
2019-11-16 23:00:00 1.8 14 Noroeste 35 Noroeste 0 -- -- 94
2019-11-16 22:00:00 1.7 18 Noroeste 33 Noroeste 0 -- -- 96
2019-11-16 21:00:00 1.6 15 Noroeste 27 Noroeste 0 -- -- 94
2019-11-16 20:00:00 1.7 12 Noroeste 27 Noroeste 0 -- -- 92
2019-11-16 19:00:00 1.7 12 Noroeste 25 Noroeste 0 -- -- 91
2019-11-16 18:00:00 1.7 14 Noroeste 28 Noroeste 0 -- -- 88
2019-11-16 17:00:00 2.8 10 Norte 32 Norte 0 -- -- 82
2019-11-16 16:00:00 2.5 15 Noroeste 45 Noroeste 0.2 -- -- 83
2019-11-16 15:00:00 2.4 26 Noroeste 42 Noroeste 1 -- -- 88
2019-11-16 14:00:00 3 19 Noroeste 33 Noroeste 1.6 -- -- 85
2019-11-16 13:00:00 3 7 Noroeste 30 Noroeste 1.6 -- -- 87
2019-11-16 12:00:00 1.8 19 Noroeste 31 Oeste 1.4 -- -- 92
2019-11-16 11:00:00 0.7 12 Noroeste 29 Noroeste 1 -- -- 97
2019-11-16 10:00:00 0.5 0 Calma 23 Noroeste 0 -- -- 98
2019-11-16 09:00:00 0.2 0 Calma -- -- 0 -- -- 98
2019-11-16 08:00:00 0 0 Calma -- -- 0 -- -- 98
2019-11-16 07:00:00 0 0 Calma -- -- 0 -- -- 98
2019-11-16 06:00:00 -0.3 0 Calma -- -- 0 -- -- 98
2019-11-16 05:00:00 -0.6 0 Calma -- -- 0 -- -- 97
2019-11-16 04:00:00 -0.2 0 Calma -- -- 0 -- -- 96
2019-11-16 03:00:00 -0.2 0 Calma -- -- 0 -- -- 98
2019-11-16 02:00:00 -0.3 0 Calma -- -- 0 -- -- 97
2019-11-16 01:00:00 -0.3 0 Calma -- -- 0.2 -- -- 97
2019-11-16 00:00:00 0.3 0 Calma -- -- 0 -- -- 97
2019-11-15 23:00:00 0.4 0 Calma -- -- 0 -- -- 97
2019-11-15 22:00:00 0.2 0 Calma -- -- 0 -- -- 97
2019-11-15 21:00:00 0.3 6 Noroeste 32 Norte 0.2 -- -- 97
2019-11-15 20:00:00 0.2 0 Calma 39 Noroeste 0 -- -- 98
2019-11-15 19:00:00 0.7 20 Noroeste 38 Noroeste 0.2 -- -- 96
2019-11-15 18:00:00 0.8 10 Noroeste 36 Noroeste 0.6 -- -- 95
2019-11-15 17:00:00 1.3 18 Noroeste 33 Noroeste 1.2 -- -- 92
2019-11-15 16:00:00 1.6 22 Noroeste 38 Noroeste 1.8 -- -- 92
2019-11-15 15:00:00 1.4 27 Noroeste 42 Noroeste 2.4 -- -- 93
2019-11-15 14:00:00 1.2 29 Noroeste 50 Noroeste 2.8 -- -- 93
2019-11-15 13:00:00 1.3 30 Noroeste 49 Noroeste 2.6 -- -- 92
2019-11-15 12:00:00 1.3 33 Noroeste 55 Noroeste 1.4 -- -- 93
2019-11-15 11:00:00 0.6 35 Noroeste 48 Noroeste 1.2 -- -- 95
2019-11-15 10:00:00 0.5 0 Calma -- -- 0.4 -- -- 97
2019-11-15 09:00:00 -0.5 0 Calma -- -- 0 -- -- 99
2019-11-15 08:00:00 -0.5 0 Calma -- -- 0 -- -- 99
2019-11-15 07:00:00 -0.1 0 Calma -- -- 0 -- -- 99
2019-11-15 06:00:00 -0.1 0 Calma -- -- 0 -- -- 99
2019-11-15 05:00:00 0.2 0 Calma -- -- 0 -- -- 98
2019-11-15 04:00:00 0.4 0 Calma -- -- 0.2 -- -- 99
2019-11-15 03:00:00 0.1 0 Calma -- -- 0 -- -- 99
2019-11-15 02:00:00 0.1 0 Calma -- -- 0 -- -- 100
2019-11-15 01:00:00 -0.3 0 Calma -- -- 0 -- -- 99
2019-11-15 00:00:00 -0.1 0 Calma -- -- 0 -- -- 100